This demonstration page uses our WeatherBlox Daily Observations layout. Learn more.

Left ArrowRight Arrow

Hourly Observations for March 1, 2015

Temp ( °F °C ) Dew Point ( °F °C ) Humidity (%) Winds ( mph kmh ) Pressure ( in mb ) Visibility ( mi km ) Precip ( " mm )
12:11 am 00:11 Cloudy with Light Snow 23 -5 17 -8.3 78 78 E 3 6 30.53 1034 2 3 N/A
12:16 am 00:16 Cloudy with Light Snow 23 -5 18 -7.8 81 81 E 3 6 30.53 1034 2 2 N/A
12:53 am 00:53 Cloudy with Light Snow 22 -5.6 19 -7.2 89 89 ESE 3 6 30.52 1034 1 2 0.01 0.25
1:53 am 01:53 Cloudy with Light Snow 23 -5 21 -6.1 92 92 ESE 3 6 30.49 1033 1 2 0.03 0.76
2:35 am 02:35 Cloudy with Light Snow 24 -4.4 22 -5.6 91 91 N N/A 30.48 1032 2 3 0.01 0.25
2:42 am 02:42 Cloudy with Light Snow 24 -4.4 22 -5.6 91 91 VRB 3 6 30.48 1032 2 2 0.02 0.51
2:53 am 02:53 Cloudy with Light Snow 25 -3.9 22 -5.6 88 88 VRB 3 6 30.46 1031 2 3 0.02 0.51
2:58 am 02:58 Cloudy with Light Snow 25 -3.9 22 -5.6 88 88 VRB 5 7 30.45 1031 3 5 N/A
3:19 am 03:19 Cloudy with Light Snow 25 -3.9 23 -5 92 92 SE 3 6 30.45 1031 4 6 0.01 0.25
3:36 am 03:36 Cloudy with Light Freezing Rain 26 -3.3 24 -4.4 92 92 N N/A 30.45 1031 4 6 0.02 0.51
3:53 am 03:53 Cloudy with Light Freezing Rain 27 -2.8 25 -3.9 92 92 SE 5 7 30.42 1030 4 6 0.02 0.51
4:23 am 04:23 Cloudy with Light Snow 27 -2.8 26 -3.3 96 96 SSE 3 6 30.45 1031 4 6 0.02 0.51
4:42 am 04:42 Cloudy with Light Snow 28 -2.2 26 -3.3 92 92 N N/A 30.42 1030 3 4 0.03 0.76
4:47 am 04:47 Cloudy with Light Snow 28 -2 27 -3 93 93 N N/A 30.42 1030 3 5 0.03 0.76
4:53 am 04:53 Cloudy with Light Snow 28 -2.2 26 -3.3 92 92 N N/A 30.42 1030 3 5 0.04 1.02
5:39 am 05:39 Cloudy with Light Snow 29 -1.7 27 -2.8 92 92 N N/A 30.45 1031 3 4 0.01 0.25
5:53 am 05:53 Cloudy with Light Snow 29 -1.7 27 -2.8 92 92 N N/A 30.43 1031 3 4 0.02 0.51
6:09 am 06:09 Cloudy with Light Snow 29 -1.7 28 -2.2 96 96 N N/A 30.45 1031 3 5 N/A
6:53 am 06:53 Cloudy with Light Snow 30 -1.1 28 -2.2 92 92 ESE 3 6 30.42 1030 3 5 0.01 0.25
7:02 am 07:02 Cloudy with Light Snow 30 -1.1 27 -2.8 88 88 VRB 5 7 30.42 1030 3 4 N/A
7:17 am 07:17 Cloudy with Light Snow 29 -1.7 27 -2.8 92 92 E 6 9 30.42 1030 2 2 0.01 0.25
7:30 am 07:30 Cloudy with Light Snow 29 -1.7 27 -2.8 92 92 E 5 7 30.42 1030 1 1 0.01 0.25
7:43 am 07:43 Cloudy with Light Snow 29 -1.7 27 -2.8 92 92 E 5 7 30.42 1030 1 2 0.02 0.51
7:53 am 07:53 Cloudy with Light Snow 29 -1.7 27 -2.8 92 92 ESE 3 6 30.42 1030 1 2 0.02 0.51
8:14 am 08:14 Cloudy with Light Snow 29 -1.7 27 -2.8 92 92 ESE 3 6 30.42 1030 1 2 N/A
8:29 am 08:29 Cloudy with Light Snow 29 -1.7 27 -2.8 92 92 ESE 3 6 30.42 1030 2 3 N/A
8:48 am 08:48 Cloudy with Light Snow 30 -1 27 -3 86 86 SE 5 7 30.42 1030 1 2 N/A
8:53 am 08:53 Cloudy with Light Snow 30 -1.1 27 -2.8 88 88 VRB 3 6 30.42 1030 1 2 0.01 0.25
9:53 am 09:53 Cloudy with Light Snow 31 -0.6 28 -2.2 89 89 VRB 3 6 30.40 1030 2 3 0.01 0.25
10:07 am 10:07 Cloudy with Light Snow 31 -0.6 28 -2.2 89 89 N N/A 30.42 1030 2 2 N/A
10:33 am 10:33 Cloudy with Light Snow 31 -0.6 28 -2.2 89 89 ESE 3 6 30.39 1029 2 2 0.01 0.25
10:53 am 10:53 Cloudy with Light Snow 31 -0.6 29 -1.7 92 92 ESE 3 6 30.39 1029 1 2 0.02 0.51
11:17 am 11:17 Cloudy with Light Snow 32 undefined 29 -1.7 88 88 N N/A 30.39 1029 2 3 N/A
11:28 am 11:28 Cloudy with Light Snow 32 undefined 29 -1.7 88 88 N N/A 30.39 1029 3 5 N/A
11:35 am 11:35 Cloudy with Light Snow 32 undefined 29 -1.7 88 88 N N/A 30.39 1029 2 3 0.01 0.25
11:45 am 11:45 Cloudy with Light Snow 32 undefined 29 -1.7 88 88 N N/A 30.39 1029 2 3 0.01 0.25
11:53 am 11:53 Cloudy with Light Snow 32 undefined 29 -1.7 88 88 N N/A 30.37 1029 2 3 0.01 0.25
12:07 pm 12:07 Cloudy with Mist and Fog 32 undefined 29 -1.7 88 88 N N/A 30.39 1029 3 5 N/A
12:53 pm 12:53 Cloudy with Mist and Fog 33 0.6 30 -1.1 89 89 N N/A 30.35 1028 3 5 N/A
1:29 pm 13:29 Cloudy with Mist and Fog 33 0.6 30 -1.1 89 89 N N/A 30.33 1027 3 4 N/A
1:38 pm 13:38 Cloudy with Light Wintry Mix 33 0.6 31 -0.6 92 92 N N/A 30.33 1027 2 3 N/A
2:32 pm 14:32 Cloudy with Mist and Fog 33 0.6 31 -0.6 92 92 N N/A 30.30 1026 3 5 N/A
2:41 pm 14:41 Cloudy with Mist and Fog 33 0.6 31 -0.6 92 92 WSW 3 6 30.30 1026 4 6 N/A
2:50 pm 14:50 Cloudy with Mist and Fog 34 1 30 -1 87 87 W 5 7 30.33 1027 5 8 N/A
2:53 pm 14:53 Cloudy with Mist and Fog 33 0.6 30 -1.1 89 89 WSW 5 7 30.31 1026 5 8 N/A
3:30 pm 15:30 Cloudy with Mist and Fog 33 0.6 31 -0.6 92 92 SW 3 6 30.33 1027 3 5 N/A
3:43 pm 15:43 Cloudy with Light Wintry Mix 33 0.6 31 -0.6 92 92 N N/A 30.33 1027 3 4 N/A
3:53 pm 15:53 Cloudy with Light Rain 34 1.1 32 undefined 92 92 SSW 3 6 30.30 1026 2 3 0.01 0.25
4:01 pm 16:01 Cloudy with Light Rain 33 0.6 32 undefined 96 96 N N/A 30.30 1026 3 4 N/A
4:12 pm 16:12 Cloudy with Light Rain 34 1.1 32 undefined 92 92 SSW 3 6 30.30 1026 3 5 N/A
4:41 pm 16:41 Cloudy with Mist and Fog 34 1.1 32 undefined 92 92 N N/A 30.30 1026 2 3 N/A
4:53 pm 16:53 Cloudy with Mist and Fog 33 0.6 32 undefined 96 96 WSW 5 7 30.30 1026 2 3 N/A
5:03 pm 17:03 Cloudy with Mist and Fog 33 0.6 32 undefined 96 96 N N/A 30.30 1026 2 2 N/A
5:17 pm 17:17 Cloudy with Mist and Fog 33 0.6 32 undefined 96 96 W 3 6 30.33 1027 2 2 N/A
5:25 pm 17:25 Cloudy with Mist and Fog 33 0.6 32 undefined 96 96 W 3 6 30.33 1027 1 2 N/A
5:50 pm 17:50 Cloudy with Light Snow 34 1 32 undefined 93 93 WSW 5 7 30.33 1027 1 1 0.01 0.25
5:53 pm 17:53 Cloudy with Light Snow 33 0.6 33 0.6 100 100 N N/A 30.30 1026 1 1 0.01 0.25
6:31 pm 18:31 Cloudy with Light Snow 33 0.6 31 -0.6 92 92 NW 3 6 30.30 1026 1 1 0.01 0.25
6:45 pm 18:45 Cloudy with Light Snow 33 0.6 33 0.6 100 100 N N/A 30.30 1026 1 2 0.01 0.25
6:53 pm 18:53 Cloudy with Light Snow 33 0.6 33 0.6 100 100 WSW 3 6 30.31 1026 1 2 0.01 0.25
7:14 pm 19:14 Cloudy with Mist and Fog 33 0.6 33 0.6 100 100 N N/A 30.30 1026 1 2 N/A
7:35 pm 19:35 Cloudy with Mist and Fog 33 0.6 32 undefined 96 96 W 3 6 30.33 1027 2 2 N/A
7:53 pm 19:53 Cloudy with Mist and Fog 33 0.6 32 undefined 96 96 W 3 6 30.31 1027 2 2 N/A
8:10 pm 20:10 Cloudy with Mist and Fog 33 0.6 32 undefined 96 96 N N/A 30.33 1027 2 3 N/A
8:17 pm 20:17 Cloudy with Mist and Fog 33 0.6 33 0.6 100 100 N N/A 30.33 1027 2 3 N/A
8:26 pm 20:26 Cloudy with Mist and Fog 33 0.6 32 undefined 96 96 W 3 6 30.33 1027 2 3 N/A
8:53 pm 20:53 Cloudy with Mist and Fog 33 0.6 32 undefined 96 96 N N/A 30.32 1027 2 3 N/A
9:18 pm 21:18 Cloudy with Mist and Fog 33 0.6 32 undefined 96 96 N N/A 30.33 1027 3 5 N/A
9:53 pm 21:53 Cloudy 33 0.6 31 -0.6 92 92 WNW 6 9 30.33 1027 7 11 N/A
10:11 pm 22:11 Cloudy 33 0.6 31 -0.6 92 92 W 7 11 30.36 1028 7 11 N/A
10:53 pm 22:53 Cloudy 33 0.6 29 -1.7 85 85 WNW 12 19 30.35 1028 7 11 N/A
11:01 pm 23:01 Cloudy 33 0.6 29 -1.7 85 85 WNW 10 17 30.36 1028 7 11 N/A
11:14 pm 23:14 Cloudy 33 0.6 29 -1.7 85 85 NW 13 20 30.36 1028 7 11 N/A
11:30 pm 23:30 Cloudy 32 undefined 28 -2.2 85 85 NW 9 15 30.36 1028 8 13 N/A
11:41 pm 23:41 Cloudy 32 undefined 28 -2.2 85 85 NW 12 19 30.36 1028 8 13 N/A
11:50 pm 23:50 Cloudy 32 undefined 28 -2 87 87 WNW 9 15 30.39 1029 8 13 N/A
11:53 pm 23:53 Cloudy 32 undefined 28 -2.2 85 85 WNW 9 15 30.36 1028 9 14 N/A

Powered by AerisWeather